星链-11742 (STARLINK-11742)

导读

STARLINK-11742是美国SpaceX公司星链星座的低轨互联网卫星,于2025年6月13日发射入轨。星链项目旨在构建全球覆盖的低轨卫星互联网,为地面基础设施难以覆盖的偏远地区、海洋及空域提供高速低延迟的宽带服务。该卫星运行于近地轨道,依托星链星座规模化组网优势,助力消除全球数字鸿沟,推动全球互联与数字经济发展,同时也延续了星链星座标准化批量制造、自主规避碰撞的技术特点。

基本信息
目录编号:
64377
目录名称:
STARLINK-11742
国际标识:
2025-127H
轨道中心:
EARTH
卫星名称:
星链-11742
卫星全名:
星链-11742 (STARLINK-11742)
卫星状态:
在轨 (已飞行366 天)
发射日期:
2025-06-13 UTC
国别 :
美国 (US)
星等 :
--
轨道信息
数据来源 国际轨道数据
星历时间: 2026-06-13T19:15:25+0800
1天前
查看轨道信息
半长轴: 6734.663km
偏心率: 0.0001059
轨道倾角: 42.998°
近地点辐角 216.986°
升交点赤经 227.420°
平近点角 143.093°
近地点: 355.812km
远地点: 357.24km
周期: 91.671分钟
每日圈数: 15.708292
详细信息
固有亮度:
5
最大亮度:
2.5
卫星平台:
Starlink V1.0
覆盖范围:
全球
运营商:
太空探索技术公司
运营商所在国:
美国
制造商(研发单位):
太空探索技术公司
制造商所在国:
美国
使用方式:
暂无
卫星简介
Starlink 计划是 SpaceX 推出的全球卫星互联网项目,通过发射低轨道卫星,为全球尤其是偏远地区提供高速、低延迟的互联网服务。自 2019 年起,Starlink 已部署数千颗卫星,旨在缩小全球数字鸿沟,推动互联网普及。该项目还为军事、航空等行业提供通信支持,带来广泛经济效益。
2D轨道图
3D轨道图
轨道高度分析图
轨道倾角分析图
轨道综合分析图
查看轨道综合分析图